Weather in Dobrosin

Ukraine / Lviv District     50°07′59″N   23°51′06″E
temp.,
°C
wind,
m/s
gust,
m/s
humid.,
%
clouds,
%
prec.,
mm/h
press.,
hPa
HPBL,
m
17 may, mon
mon1700:00+11sw379576 0.1 1007180
03:00+9wsw229490 0.1 100827
06:00+10wsw36935 0.0 1007149
09:00+14ssw00790 0.0 1007377
12:00+18sw116029 0.0 10061345
15:00+20n114814 0.1 10051861
18:00+20ne32509 0.0 10031727
21:00+14ene34810 0.0 100350
18 may, tue
tue1800:00+11ese11842 0.0 100310
03:00+10w229081 0.0 100321
06:00+10w349480 0.0 100389
09:00+14nw4581100 0.0 1004505
12:00+15nw7777100 0.1 1004992
15:00+16nw8870100 0.1 10051225
18:00+13wnw8107972 0.1 1007920
21:00+12wnw6118560 0.2 1008581
19 may, wed
wed1900:00+11wnw6138899 0.0 1009577
03:00+10w61288100 0.0 1009549
06:00+8w6149492 0.0 1010432
09:00+12wnw7107817 0.0 1011757
12:00+15wnw7864100 0.1 10101546
15:00+16nw576461 0.2 10101293
18:00+15nnw236882 0.1 1010683
21:00+12nne228366 0.2 101011
20 may, thu
thu2000:00+9sw119185 0.0 101121
03:00+10wsw3598100 2.8 1010303
06:00+9sw3696100 3.5 1010311
09:00+10sw349299 3.9 1010375
12:00+11sw569296 0.3 1011587
15:00+13sw6676100 0.4 1010905
18:00+13wnw448169 0.3 1010731
21:00+11nw61092100 1.2 1013469
21 may, fri
fri2100:00+10nw51094100 0.1 1014394
03:00+9nnw4897100 0.1 1015329
06:00+9nnw61096100 0.0 1016456
09:00+8nnw5109287 0.4 1018477
12:00+11n6872100 0.0 1020749
15:00+15n555729 0.0 10191513
18:00+14n4666100 0.1 1018782
21:00+11nnw3574100 0.1 101998